Volver al catálogo

STARLINK-11362

ActivoComunicacionesVLEO
NORAD 61535·PAYLOAD·🇺🇸 United States

Lanzado Oct 15, 2024 desde Vandenberg Space Force Base

Loading…

Próximos Pases (próximas 24 horas)

TLE

ActualizadoSource: CelesTrak SupGP

Época: Sep 14, 2026, 21:12 UTC

1 61535C 24184D   26257.88381944  .00063373  00000+0  52182-3 0  2575
2 61535  53.1575  23.4658 0001075  79.0108 306.2961 15.69687439    10

Sigue STARLINK-11362 en tiempo real con AllMySat

Download on the App Store